• Join FlightAware (Why Join?)
  • Login
  • US Flag 
02:40PM EDT


 

Airport Tracker/Info


-or-


 

Live Flight TrackerFlight Track Log ✈ KCE2 ✈ 16-Jul-2013 ✈ KPNE - KTEB

Flight Track Log - Related Links

Times and Time Zones

All times are in EDT time to prevent confusion due to time zone crossing. See the KCE2 flight status page for this flight to view local times or setup timezone preferences in your user account.

Time Position Orientation Groundspeed Altitude Reporting Facility
EDT Latitude Longitude Course Direction KTS MPH feet Rate Location/Type
07:22PM 40.3194 -75.1008 16° North 261 300 3,800  Level FlightAware ADS-B
07:22PM 40.3235 -75.0988 20° North 261 300 3,800  Level FlightAware ADS-B
07:22PM 40.3295 -75.0947 28° Northeast 261 300 3,800  Level FlightAware ADS-B
07:22PM 40.3343 -75.0903 35° Northeast 262 302 3,800  Level FlightAware ADS-B
07:22PM 40.3445 -75.0776 43° Northeast 262 302 3,800  Level FlightAware ADS-B
07:23PM 40.3574 -75.0598 46° Northeast 263 303 3,800  Level FlightAware ADS-B
07:23PM 40.3707 -75.0413 47° Northeast 263 303 3,800  Level FlightAware ADS-B
07:23PM 40.3833 -75.0237 47° Northeast 262 302 3,800  Level FlightAware ADS-B
07:23PM 40.3957 -75.0063 47° Northeast 261 300 3,800  Level FlightAware ADS-B
07:24PM 40.4095 -74.9864 48° Northeast 262 302 3,800  Level FlightAware ADS-B
07:24PM 40.4122 -74.9812 56° Northeast 262 302 3,800  Level FlightAware ADS-B
07:24PM 40.4153 -74.9747 58° Northeast 263 303 3,800  Level FlightAware ADS-B
07:24PM 40.4250 -74.9533 59° Northeast 263 303 3,800  Level FlightAware ADS-B
07:24PM 40.4344 -74.9318 60° Northeast 263 303 3,800  Level FlightAware ADS-B
07:25PM 40.4450 -74.9077 60° Northeast 264 304 3,800  Level FlightAware ADS-B
07:25PM 40.4546 -74.8857 60° Northeast 264 304 3,800  Level FlightAware ADS-B
07:25PM 40.4641 -74.8641 60° Northeast 265 305 3,800  Level FlightAware ADS-B
07:25PM 40.4735 -74.8423 60° Northeast 265 305 3,800  Level FlightAware ADS-B
07:26PM 40.4826 -74.8215 60° Northeast 265 305 3,800  Level FlightAware ADS-B
07:26PM 40.4928 -74.7981 60° Northeast 264 304 3,800  Level FlightAware ADS-B
07:26PM 40.5032 -74.7741 60° Northeast 265 305 3,800  Level FlightAware ADS-B
07:27PM 40.5232 -74.7281 60° Northeast 265 305 3,800  Level FlightAware ADS-B
07:27PM 40.5353 -74.7003 60° Northeast 265 305 3,800  Level FlightAware ADS-B
07:27PM 40.5453 -74.6771 60° Northeast 264 304 3,800  Level FlightAware ADS-B
07:28PM 40.5555 -74.6534 60° Northeast 264 304 3,800 -300 Level FlightAware ADS-B
07:29PM 40.5842 -74.5871 60° Northeast 265 305 3,500 -480 Descending FlightAware ADS-B
07:29PM 40.5963 -74.5590 60° Northeast 248 285 3,300 -540 Descending FlightAware ADS-B
07:29PM 40.6047 -74.5394 61° Northeast 242 278 3,200 -360 Descending FlightAware ADS-B
07:29PM 40.6148 -74.5160 60° Northeast 240 276 3,100 -480 Descending FlightAware ADS-B
07:30PM 40.6258 -74.4903 61° Northeast 239 275 2,900 -480 Descending FlightAware ADS-B
07:30PM 40.6366 -74.4653 60° Northeast 238 274 2,800 -600 Descending FlightAware ADS-B
07:31PM 40.6620 -74.4060 61° Northeast 225 259 2,200 -780 Descending FlightAware
07:31PM 40.6770 -74.3710 61° Northeast 223 257 1,800 -420 Descending FlightAware
07:32PM 40.6910 -74.3400 59° Northeast 215 247 1,800  Level FlightAware
07:34PM 40.7412 -74.2253 60° Northeast 199 229 1,800  Level FlightAware ADS-B
07:34PM 40.7667 -74.1876 48° Northeast 197 227 1,900  Climbing FlightAware ADS-B
07:35PM 40.7749 -74.1757 48° Northeast 173 199 1,800 -600 Descending FlightAware ADS-B
07:35PM 40.7831 -74.1638 48° Northeast 169 194 1,600 -780 Descending FlightAware ADS-B
07:35PM 40.7989 -74.1406 48° Northeast 166 191 1,200 -780 Descending FlightAware ADS-B
07:36PM 40.8224 -74.1060 48° Northeast 154 177 600 -780 Descending FlightAware ADS-B
07:37PM 40.8296 -74.0954 43° Northeast 144 166 400 -780 Descending FlightAware ADS-B
07:37PM 40.8368 -74.0848 48° Northeast 132 152 200 -720 Descending FlightAware ADS-B
07:37PM 40.8414 -74.0782 47° Northeast 127 146 -1,140 Descending FlightAware ADS-B
07:44PM 40.8501 -74.0608 57° Northeast  Level Estimated
07:45PM 40.8501 -74.0608 57° Northeast  Level Estimated
07:46PM 40.8501 -74.0608 57° Northeast  Level Estimated